Location: Newark
(34.9756°N, 138.3828°E)
Time: 01:39:11
(UTC+00:00)

N. Korean satellite - Pass Details

Date: 18 December 2019
Orbit: 454 x 507 km, 97.2° (Epoch: 23 January)

Event Time Altitude Azimuth Distance (km) Brightness Sun altitude
Rises 20:28:41 0° 13° (NNE) 2,497 10.1 -16.0°
Reaches altitude 10° 20:30:45 10° 14° (NNE) 1,611 9.2 -15.6°
Maximum altitude 20:34:12 77° 100° (E) 474 6.6 -14.9°
Drops below altitude 10° 20:37:35 10° 188° (S) 1,585 9.3 -14.2°
Sets 20:39:36 0° 189° (S) 2,452 10.3 -13.8°
